Regional Weather Roundup
Issued by NWS State College, PA

Home | Current Version | Previous Version | Text Only | Print | Product List | Glossary On
Versions: 1 2 3 4 5 6 7 8 9 10 11 12 13 14 15 16 17 18 19 20 21 22 23 24 25 26 27 28 29 30 31 32 33 34 35 36 37 38 39 40 41 42 43 44 45 46 47 48 49 50
000
ASUS41 KCTP 252310
RWRCTP

REGIONAL WEATHER ROUNDUP
NATIONAL WEATHER SERVICE STATE COLLEGE PA
700 PM EDT SAT MAR 25 2017

Note: "fair" indicates few or no clouds below 12,000 feet with no
significant weather and/or obstructions to visibility.

* = STATION THAT DOES NOT REPORT PRECIPITATION /E.G. RAIN...SNOW...ETC/
    THUNDER OR FOG.

PAZ002>004-007>009-013>016-020>023-029>032-260000-
WESTERN PENNSYLVANIA

CITY           SKY/WX    TMP DP  RH WIND       PRES   REMARKS
ERIE           CLOUDY    37  34  89 NE14      30.22S
MEADVILLE      CLOUDY    56  46  69 NE5       30.17R
FRANKLIN*      CLOUDY    61  48  63 CALM      30.19R
NEW CASTLE     FAIR      66  52  60 NE8       30.16R
BEAVER COUNTY  NOT AVBL
BUTLER*        CLOUDY    66  52  59 NE6       30.16R
PITTSBURGH INT CLOUDY    70  52  52 E3        30.13S
PITTSBURGH     CLOUDY    70  49  47 CALM      30.13S
INDIANA*       CLEAR     68  54  60 CALM      30.19R
LATROBE        CLOUDY    70  50  49 CALM      30.16R
WASHINGTON CO* CLOUDY    70  50  49 CALM      30.16R
$$

PAZ004>006-010>012-017>019-024>028-033>037-041-042-045-046-049>053-260000-
CENTRAL PENNSYLVANIA

CITY           SKY/WX    TMP DP  RH WIND       PRES   REMARKS
BRADFORD       CLOUDY    49  43  80 E5        30.22R
DUBOIS         CLOUDY    60  50  69 E5        30.18R
CLEARFIELD       N/A    N/A N/A N/A MISG      30.20R
JOHNSTOWN      MOCLDY    66  49  54 CALM      30.18R
ALTOONA        CLOUDY    67  53  61 CALM      30.17R
STATE COLLEGE  MOCLDY    50  43  76 NE7       30.22R
WILLIAMSPORT   CLOUDY    48  39  71 N6        30.25R
SELINSGROVE    CLOUDY    53  44  71 N5        30.24R
FT INDIANTOWN  MOCLDY    62  47  56 NE12G18   30.19R
CAPITAL CITY   CLOUDY    68  47  46 NW12      30.16R
HARRISBURG     CLOUDY    68  53  58 CALM      30.14R
YORK           MOCLDY    70  53  54 SW3       30.15R
$$

PAZ038>040-043-044-047-048-054-055-060>062-067>071-260000-
EASTERN PENNSYLVANIA

CITY           SKY/WX    TMP DP  RH WIND       PRES   REMARKS
SCRANTON       CLOUDY    44  43  96 NE5       30.26R
MOUNT POCONO   CLOUDY    42  42 100 CALM      30.23R
ALLENTOWN      MOCLDY    52  39  61 E15       30.24R
QUAKERTOWN*    CLOUDY    52  41  66 NE7       30.26R
READING        LGT RAIN  58  44  60 E9G20     30.22R
LANCASTER      MOCLDY    68  58  70 E8        30.16R
COATESVILLE    MOCLDY    66  55  68 VRB5G13   30.21R
POTTSTOWN      CLOUDY    55  43  63 NE20G25   30.25R
BLUE BELL      MOCLDY    55  43  62 NE12G17   30.23R
DOYLESTOWN     PTCLDY    53  42  66 CALM      30.25R
WILLOW GROVE   NOT AVBL
NORTH PHILA    CLOUDY    56  45  66 E17       30.27R
PHILADELPHIA   CLOUDY    58  50  75 NE16G31   30.24R
$$




USA.gov is the U.S. government's official web portal to all federal, state and local government web resources and services.